The Cajun Classic - inventory

Station: 20 Miles - T Race

Distance: 20 Miles    

Release: 03-Jun-2017 16:00

Weather Release:    Arrival:

Wind at Release:     Wind at Arrival:

Temp at Release: °    Temp at Arrival: °

Lofts: 45

Birds: 181

Clocked: 177

Good Luck to Everyone!
Drops Pos Breeder Pigeon Name Color Sex Ent Arrival Speed To Win Eligible
1 B & S Loft 2 - LA 0783-AU17-LAF BCWF H 1 16:19:18.20 1823.519 00:00:00 Yes
2 Texas Trio 2 - TX 4035-AU17-TEXA BBWF C 1 16:19:18.40 1823.204 00:00:00 Yes
2 Tom Cosgriff - NJ 0017-AU17-ARPU SILV C 1 16:19:18.40 1823.204 00:00:00 Yes
2 El Dorado Loft - TX 0152-AU17-TEXA BB C 1 16:19:18.40 1823.204 00:00:00 Yes
5 Tom Cosgriff - NJ 0029-AU17-ARPU BC H 2 16:19:18.60 1822.890 00:00:00 Yes
5 Gilbert Wiltz - TX 10941-AU17-AA BCWF C 1 16:19:18.60 1822.890 00:00:00 Yes
5 Nanez Family Lofts - WI 4292-AU17-NANE BBWF H 1 16:19:18.60 1822.890 00:00:00 Yes
8 Texas Trio 2 - TX 4036-AU17-TEXA BC H 2 16:19:18.70 1822.732 00:00:01 Yes
9 Gilbert Wiltz - TX 10938-AU17-AA BBWF C 2 16:19:44.50 1783.031 00:00:26 Yes
10 B & S Loft 2 - LA 0773-AU17-LAF BC H 2 16:19:44.70 1782.730 00:00:26 Yes
11 El Dorado Loft - TX 0153-AU17-TEXA BB C 2 16:19:45.40 1781.677 00:00:27 Yes
12 Texas Trio 2 - TX 4084-AU17-TEXA BB H 3 16:19:45.70 1781.226 00:00:28 Yes
13 Nanez Family Lofts - WI 4175-AU17-NANE BB H 2 16:19:54.40 1768.252 00:00:36 Yes
14 Nanez Family Lofts - WI 4295-AU17-NANE BB H 3 16:19:56.60 1765.001 00:00:38 Yes
15 Black Magic Loft - TX 0405-AU17-BLAC GRIZ H 1 16:19:57.40 1763.822 00:00:39 Yes
16 Poorshow Loft - LA 22408-AU17-AA SILV C 1 16:20:04.00 1754.153 00:00:46 Yes
17 El Dorado Loft - TX 0151-AU17-TEXA BC H 3 16:20:04.10 1754.007 00:00:46 Yes
18 Toca Ridge Loft - LA 7384-AU17-AA GRIZ C 1 16:20:20.70 1730.155 00:01:02 Yes
19 Gilbert Wiltz - TX 10936-AU17-AA BCWF H 3 16:20:25.80 1722.956 00:01:08 Yes
20 Johnson/Mailhes - LA 0161-AU17-LAF BC H 1 16:20:26.50 1721.973 00:01:08 Yes
21 Hollywood Lou Loft - FL 0037-AU17-HLOU BBWF C 1 16:20:27.10 1721.131 00:01:09 Yes
22 A P C Loft - TX 17149-AU17-APC BBWF H 1 16:20:31.80 1714.564 00:01:14 Yes
23 Lighthouse Racing Pigeons - OH 4138-AU17-IHC BCWF C 1 16:20:35.50 1709.429 00:01:17 Yes
24 Bottoms Up Loft - TX 8671-AU17-AA BC H 1 16:20:36.90 1707.495 00:01:19 Yes
25 Gilbert Wiltz - TX 10912-AU17-AA BBWF H 4 16:20:39.50 1703.913 00:01:21 Yes
26 Mcconnell Loft - FL 1811-AU17-GHC BB C 1 16:20:44.50 1697.067 00:01:26 Yes
27 Ganus Family Loft - IN 0362-AU17-GFL BB C 1 16:20:45.70 1695.432 00:01:28 Yes
28 Nanez Family Lofts - WI 4169-AU17-NANE BB C 4 16:20:53.70 1684.614 00:01:35 Yes
29 Cajun Express Loft - LA 0816-AU17-CEL BB H 1 16:20:54.30 1683.808 00:01:36 Yes
30 Mcconnell Loft - FL 1842-AU17-GHC BC H 2 16:20:55.00 1682.869 00:01:37 Yes
31 H H H No 2 - TX 19855-AU17-FOYS BCWF C 1 16:20:57.20 1679.924 00:01:39 Yes
32 Nanez Family Lofts - WI 4190-AU17-NANE BB C 5 16:21:00.30 1675.791 00:01:42 Yes
33 J & K Of Tx - TX 0421-AU17-PB RC C 1 16:21:01.80 1673.799 00:01:44 Yes
34 Gilbert Wiltz - TX 10913-AU17-AA DC H 5 16:21:09.30 1663.909 00:01:51 Yes
35 Oaktree - LA 0715-AU17-OAK BC H 1 16:21:13.00 1659.073 00:01:55 Yes
36 Black Magic Loft - TX 0410-AU17-BLAC GRIZ C 2 16:21:18.20 1652.324 00:02:00 Yes
37 Vick Corso - LA 1238-AU17-CORS BB H 1 16:21:19.40 1650.774 00:02:01 Yes
38 Lyons Loft - TX 1202-AU17-TXHC BB C 1 16:21:20.30 1649.613 00:02:02 Yes
39 Bayou Lofts - LA 0724-AU17-BRFT BC H 1 16:21:22.30 1647.040 00:02:04 Yes
40 John Fukumoto - HI 0377-AU17-HAWN BB C 1 16:21:23.30 1645.757 00:02:05 Yes
41 Oaktree - LA 0729-AU17-OAK BC H 2 16:21:24.40 1644.348 00:02:06 Yes
42 Bucktown Loft - LA 1611-AU17-AUCO BB H 1 16:21:25.50 1642.940 00:02:07 Yes
42 Bottoms Up Loft - TX 8663-AU17-AA BCWF H 2 16:21:25.50 1642.940 00:02:07 Yes
44 Johnson/Mailhes - LA 0146-AU17-LAF BC C 2 16:21:26.10 1642.174 00:02:08 Yes
45 Red Ass Ranch - TX 0134-AU17-RAR BBWF C 1 16:21:28.10 1639.624 00:02:10 Yes
46 Espo Loft - SC 0957-AU17-ESPO BC H 1 16:21:29.30 1638.098 00:02:11 Yes
47 John Fukumoto - HI 0355-AU17-HAWN BB C 2 16:21:29.80 1637.463 00:02:12 Yes
48 Hynes - LA 1358-AU17-SLID BC C 1 16:21:30.90 1636.068 00:02:13 Yes
49 Hynes - LA 1362-AU17-SLID BB H 2 16:21:33.80 1632.401 00:02:16 Yes
50 Lighthouse Racing Pigeons - OH 4141-AU17-IHC BBWF C 2 16:21:34.30 1631.770 00:02:16 Yes
51 Clear Springs Loft - FL 17017-AU17-WARD BB H 1 16:21:35.90 1629.755 00:02:18 Yes
52 Lewis Loft - LA 7321-AU17-CENL BC H 1 16:21:37.10 1628.248 00:02:19 Yes
53 Poorshow Loft - LA 22401-AU17-AA BB C 2 16:21:38.90 1625.991 00:02:21 Yes
54 Tom Cosgriff - NJ 0030-AU17-ARPU BC C 3 16:21:41.50 1622.743 00:02:23 Yes
55 Carroll Hoover - PA 1070-IF17-RLPC BC C 1 16:21:43.80 1619.880 00:02:26 Yes
56 J & K Of Tx - TX 0401-AU17-PB BBWF H 2 16:21:44.50 1619.011 00:02:26 Yes
57 R & R Loft - LA 0139-AU17-MILL BB C 1 16:21:45.20 1618.143 00:02:27 Yes
58 Pigeon Palace - LA 0364-AU17-LAF BB H 1 16:21:46.10 1617.028 00:02:28 Yes
58 Bionic Loft - LA 0664-AU17-CAJU BCWF H 1 16:21:46.10 1617.028 00:02:28 Yes
60 Pigeon Palace - LA 0369-AU17-LAF BB H 2 16:21:46.20 1616.904 00:02:28 Yes
61 A P C Loft - TX 17141-AU17-APC BBWF H 2 16:21:47.30 1615.543 00:02:29 Yes
62 Farmers Loft Of La - LA 0726-AU17-FARM BCP H 1 16:21:48.10 1614.555 00:02:30 Yes
62 Clear Springs Loft - FL 17034-AU17-WARD BB C 2 16:21:48.10 1614.555 00:02:30 Yes
64 Ed Minvielle - LA 17032-AU17-A BB H 1 16:21:48.60 1613.939 00:02:30 Yes
65 Black Magic Loft - TX 0403-AU17-BLAC BB C 3 16:21:49.10 1613.322 00:02:31 Yes
66 Zero's Loft - NM 0420-AU17-PB SLAT H 1 16:21:50.40 1611.722 00:02:32 Yes
67 Lyons Loft - TX 1204-AU17-TXHC BB H 2 16:21:51.10 1610.861 00:02:33 Yes
68 Hollywood Lou Loft - FL 0045-AU17-HLOU BC C 2 16:21:51.60 1610.247 00:02:33 Yes
69 H H H No 2 - TX 19862-AU17-FOYS BB H 2 16:21:52.90 1608.653 00:02:35 Yes
70 J & K Of Tx - TX 0411-AU17-PB RC C 3 16:21:53.60 1607.795 00:02:35 Yes
71 Texas Trio 2 - TX 1017-AU17-VPR BBWF H 4 16:21:54.40 1606.817 00:02:36 Yes
72 Pigeon Palace - LA 0320-AU17-LAF BBWF C 3 16:21:55.40 1605.595 00:02:37 Yes
73 A P C Loft - TX 17154-AU17-APC BB C 3 16:21:56.10 1604.741 00:02:38 Yes
74 R & R Loft - LA 0143-AU17-MILL BB H 2 16:21:56.60 1604.132 00:02:38 Yes
75 Johnson/Mailhes - LA 0184-AU17-LAF BB C 3 16:21:58.20 1602.185 00:02:40 Yes
76 Black Gold Loft - TX 0820-AU17-BLGO BC C 1 16:21:58.50 1601.820 00:02:40 Yes
77 Bottoms Up Loft - TX 8658-AU17-AA BC C 3 16:21:58.60 1601.699 00:02:40 Yes
78 Red Ass Ranch - TX 0137-AU17-RAR BB C 2 16:21:59.40 1600.728 00:02:41 Yes
79 Ganus Family Loft - IN 0746-AU17-GFL BB C 2 16:22:00.40 1599.515 00:02:42 Yes
80 Carroll Hoover - PA 1071-IF17-RLPC BB H 2 16:22:00.50 1599.394 00:02:42 Yes
81 Southern Belle - GA 0012-AU17-NEA DC H 1 16:22:01.10 1598.668 00:02:43 Yes
82 H H H No 2 - TX 19853-AU17-FOYS BB C 3 16:22:01.70 1597.942 00:02:43 Yes
83 Mike Wallett - LA 0933-AU17-LAF BCWF H 1 16:22:02.00 1597.579 00:02:44 Yes
83 Black Gold Loft - TX 22155-AU17-AA BB C 2 16:22:02.00 1597.579 00:02:44 Yes
85 Bottoms Up Loft - TX 8667-AU17-AA BB C 4 16:22:02.10 1597.459 00:02:44 Yes
86 J B Loft - LA 0923-AU17-BRFT Chief BCWF C 1 16:22:06.60 1592.040 00:02:48 Yes
87 John Fukumoto - HI 0300-AU17-HAWN BB C 3 16:22:07.50 1590.960 00:02:49 Yes
88 Texas Trio 2 - TX 4135-AU17-TEXA BB C 5 16:22:09.20 1588.926 00:02:51 Yes
89 Toca Ridge Loft - LA 7385-AU17-AA DC H 2 16:22:11.00 1586.777 00:02:53 Yes
90 Vick Corso - LA 1261-AU17-CORS DC H 2 16:22:21.70 1574.122 00:03:04 Yes
91 Pigeon Palace - LA 0350-AU17-LAF BB C 4 16:22:22.70 1572.950 00:03:04 Yes
92 Aucoin & Rivero Loft - LA 0421-AU17-MET BCWF C 1 16:22:24.40 1570.961 00:03:06 Yes
93 R & R Loft - LA 0135-AU17-MILL BB C 3 16:22:25.20 1570.027 00:03:07 Yes
94 Mcconnell Loft - FL 1802-AU17-GHC BBPD H 3 16:22:27.80 1566.998 00:03:10 Yes
95 Lewis Loft - LA 7326-AU17-CENL BCWF C 2 16:22:40.80 1552.028 00:03:23 Yes
96 Ganus Family Loft - IN 0346-AU17-GFL BC C 3 16:22:45.70 1546.460 00:03:27 Yes
97 Poorshow Loft - LA 22410-AU17-AA BB H 3 16:22:47.30 1544.650 00:03:29 Yes
98 Vick Corso - LA 1258-AU17-CORS DC H 3 16:22:49.40 1542.281 00:03:31 Yes
99 H H H No 2 - TX 19859-AU17-FOYS BBWF H 4 16:22:58.80 1531.767 00:03:41 Yes
100 Red Ass Ranch - TX 0132-AU17-RAR BBWF H 3 16:23:14.60 1514.413 00:03:56 Yes

There are 181 bird records

Note: These Race Results are unofficial and subject to change until verified by the Race Committee and declared final.